• In United States
  • List of Countries
  • For 7 days
  • Water Temperature
  • Satellite Maps
  • Weather Map
  • Weather Widgets
  • user-avatar
    Login

    Hourly Weather Juneau

    Today, 20 October, Saturday

    Time Temperature Precipitation Wind Pressure Humidity
    00:00 +4°C° 0.7 mm 6 mps 720 mmHg 94%
    01:00 +4°C° 0.7 mm 6 mps 721 mmHg 93%
    02:00 +4°C° 0.7 mm 6 mps 721 mmHg 93%
    03:00 +4°C° 0.7 mm 6 mps 722 mmHg 93%
    04:00 +3°C° 0.9 mm 6 mps 722 mmHg 93%
    05:00 +3°C° 0.9 mm 6 mps 723 mmHg 93%
    06:00 +3°C° 0.9 mm 6 mps 723 mmHg 93%
    07:00 +4°C° 0.8 mm 6 mps 723 mmHg 92%
    08:00 +4°C° 0.8 mm 6 mps 724 mmHg 91%
    09:00 +4°C° 0.8 mm 6 mps 724 mmHg 90%
    10:00 +5°C° 0.4 mm 5 mps 725 mmHg 89%
    11:00 +5°C° 0.4 mm 5 mps 725 mmHg 87%
    12:00 +6°C° 0.4 mm 5 mps 725 mmHg 86%
    13:00 +6°C° 0.2 mm 4 mps 725 mmHg 87%
    14:00 +6°C° 0.2 mm 4 mps 725 mmHg 88%
    15:00 +7°C° 0.2 mm 3 mps 725 mmHg 89%
    16:00 +5°C° 0.4 mm 3 mps 725 mmHg 91%
    17:00 +5°C° 0.4 mm 3 mps 725 mmHg 92%
    18:00 +5°C° 0.4 mm 3 mps 725 mmHg 94%
    19:00 +5°C° 0.3 mm 3 mps 725 mmHg 94%
    20:00 +5°C° 0.3 mm 3 mps 725 mmHg 94%
    21:00 +6°C° 0.3 mm 2 mps 725 mmHg 94%
    22:00 +6°C° 0.6 mm 2 mps 725 mmHg 93%
    23:00 +6°C° 0.6 mm 2 mps 724 mmHg 93%

    Tomorrow, 21 October, Sunday

    Time Temperature Precipitation Wind Pressure Humidity
    00:00 +6°C° 0.6 mm 2 mps 724 mmHg 93%
    01:00 +6°C° 0.9 mm 2 mps 724 mmHg 93%
    02:00 +5°C° 0.9 mm 3 mps 724 mmHg 93%
    03:00 +5°C° 0.9 mm 3 mps 724 mmHg 93%
    04:00 +5°C° 1 mm 3 mps 724 mmHg 92%
    05:00 +5°C° 1 mm 3 mps 723 mmHg 92%
    06:00 +5°C° 1 mm 3 mps 723 mmHg 92%
    07:00 +5°C° 0.9 mm 3 mps 723 mmHg 91%
    08:00 +6°C° 0.9 mm 2 mps 723 mmHg 90%
    09:00 +6°C° 0.9 mm 2 mps 723 mmHg 89%
    10:00 +7°C° 0.6 mm 2 mps 722 mmHg 86%
    11:00 +7°C° 0.6 mm 2 mps 722 mmHg 84%
    12:00 +7°C° 0.6 mm 2 mps 722 mmHg 82%
    13:00 +7°C° 0.2 mm 2 mps 722 mmHg 82%
    14:00 +7°C° 0.2 mm 2 mps 721 mmHg 82%
    15:00 +7°C° 0.2 mm 2 mps 721 mmHg 82%
    16:00 +7°C° 0.2 mm 2 mps 721 mmHg 81%
    17:00 +6°C° 0.2 mm 2 mps 721 mmHg 81%
    18:00 +6°C° 0.2 mm 2 mps 721 mmHg 80%
    19:00 +6°C° 0.1 mm 2 mps 720 mmHg 78%
    20:00 +5°C° 0.1 mm 2 mps 720 mmHg 76%
    21:00 +5°C° 0.1 mm 2 mps 720 mmHg 75%
    22:00 +5°C° 0.1 mm 2 mps 719 mmHg 73%
    23:00 +5°C° 0.1 mm 2 mps 719 mmHg 72%

    Day after tomorrow, 22 October, Monday

    Time Temperature Precipitation Wind Pressure Humidity
    00:00 +5°C° 0.1 mm 2 mps 719 mmHg 71%
    01:00 +5°C° 0.9 mm 2 mps 718 mmHg 74%
    02:00 +5°C° 0.9 mm 2 mps 717 mmHg 78%
    03:00 +4°C° 0.9 mm 2 mps 716 mmHg 81%
    04:00 +4°C° 2.9 mm 2 mps 715 mmHg 84%
    05:00 +4°C° 2.9 mm 2 mps 714 mmHg 87%
    06:00 +4°C° 2.9 mm 2 mps 713 mmHg 90%
    07:00 +4°C° 3.8 mm 2 mps 713 mmHg 91%
    08:00 +4°C° 3.8 mm 2 mps 712 mmHg 92%
    09:00 +4°C° 3.8 mm 2 mps 712 mmHg 93%
    10:00 +4°C° 1.4 mm 2 mps 712 mmHg 93%
    11:00 +5°C° 1.4 mm 2 mps 712 mmHg 93%
    12:00 +5°C° 1.4 mm 2 mps 713 mmHg 94%
    13:00 +5°C° 1.2 mm 2 mps 712 mmHg 94%
    14:00 +5°C° 1.2 mm 2 mps 711 mmHg 94%
    15:00 +6°C° 1.2 mm 2 mps 711 mmHg 95%
    16:00 +6°C° 2.9 mm 2 mps 710 mmHg 95%
    17:00 +6°C° 2.9 mm 2 mps 710 mmHg 96%
    18:00 +6°C° 2.9 mm 2 mps 710 mmHg 97%
    19:00 +6°C° 3.4 mm 2 mps 709 mmHg 97%
    20:00 +6°C° 3.4 mm 2 mps 708 mmHg 97%
    21:00 +6°C° 3.4 mm 2 mps 707 mmHg 97%
    22:00 +7°C° 3.3 mm 2 mps 707 mmHg 97%
    23:00 +7°C° 3.3 mm 2 mps 707 mmHg 97%

    23 October, Tuesday

    Time Temperature Precipitation Wind Pressure Humidity
    00:00 +7°C° 3.3 mm 2 mps 707 mmHg 96%
    01:00 +7°C° 1.6 mm 2 mps 708 mmHg 97%
    02:00 +7°C° 1.6 mm 2 mps 708 mmHg 97%
    03:00 +7°C° 1.6 mm 2 mps 709 mmHg 97%
    04:00 +7°C° 0.6 mm 2 mps 709 mmHg 96%
    05:00 +5°C° 0.6 mm 3 mps 710 mmHg 96%
    06:00 +5°C° 0.6 mm 3 mps 710 mmHg 96%
    07:00 +5°C° 0.6 mm 3 mps 711 mmHg 95%
    08:00 +5°C° 0.6 mm 3 mps 711 mmHg 94%
    09:00 +5°C° 0.6 mm 3 mps 712 mmHg 93%
    10:00 +5°C° 0.7 mm 3 mps 712 mmHg 91%
    11:00 +6°C° 0.7 mm 4 mps 712 mmHg 90%
    12:00 +6°C° 0.7 mm 4 mps 713 mmHg 88%
    13:00 +6°C° 0.7 mm 4 mps 713 mmHg 89%
    14:00 +5°C° 0.7 mm 4 mps 713 mmHg 89%
    15:00 +5°C° 0.7 mm 3 mps 713 mmHg 90%
    16:00 +5°C° 0.8 mm 3 mps 713 mmHg 91%
    17:00 +5°C° 0.8 mm 3 mps 714 mmHg 92%
    18:00 +5°C° 0.8 mm 2 mps 714 mmHg 93%
    19:00 +5°C° 1 mm 2 mps 714 mmHg 93%
    20:00 +5°C° 1 mm 2 mps 714 mmHg 93%
    21:00 +5°C° 1 mm 2 mps 714 mmHg 93%
    22:00 +5°C° 1 mm 2 mps 714 mmHg 93%
    23:00 +5°C° 1 mm 2 mps 714 mmHg 93%

    24 October, Wednesday

    Time Temperature Precipitation Wind Pressure Humidity
    00:00 +5°C° 1 mm 2 mps 715 mmHg 93%
    01:00 +5°C° 1.1 mm 2 mps 715 mmHg 93%
    02:00 +5°C° 1.1 mm 2 mps 715 mmHg 94%
    03:00 +5°C° 1.1 mm 2 mps 715 mmHg 94%
    04:00 +5°C° 1 mm 2 mps 716 mmHg 94%
    05:00 +5°C° 1 mm 2 mps 716 mmHg 95%
    06:00 +4°C° 1 mm 3 mps 716 mmHg 95%
    07:00 +5°C° 0.5 mm 2 mps 716 mmHg 94%
    08:00 +5°C° 0.5 mm 2 mps 716 mmHg 94%
    09:00 +5°C° 0.5 mm 2 mps 717 mmHg 94%
    10:00 +6°C° 0.7 mm 2 mps 717 mmHg 92%
    11:00 +6°C° 0.7 mm 2 mps 717 mmHg 91%
    12:00 +7°C° 0.7 mm 1 mps 716 mmHg 90%
    13:00 +6°C° 0.4 mm 2 mps 716 mmHg 89%
    14:00 +6°C° 0.4 mm 2 mps 715 mmHg 88%
    15:00 +6°C° 0.4 mm 2 mps 715 mmHg 88%
    16:00 +6°C° 0.7 mm 2 mps 714 mmHg 87%
    17:00 +5°C° 0.7 mm 2 mps 714 mmHg 87%
    18:00 +5°C° 0.7 mm 2 mps 713 mmHg 87%
    19:00 +4°C° 0.5 mm 3 mps 712 mmHg 86%
    20:00 +4°C° 0.5 mm 3 mps 712 mmHg 86%
    21:00 +4°C° 0.5 mm 3 mps 711 mmHg 86%
    22:00 +4°C° 0.4 mm 3 mps 711 mmHg 85%
    23:00 +4°C° 0.4 mm 3 mps 710 mmHg 85%

    25 October, Thursday

    Time Temperature Precipitation Wind Pressure Humidity
    00:00 +4°C° 0.4 mm 3 mps 710 mmHg 85%
    01:00 +4°C° 0.3 mm 3 mps 709 mmHg 85%
    02:00 +4°C° 0.3 mm 3 mps 709 mmHg 85%
    03:00 +4°C° 0.3 mm 3 mps 709 mmHg 85%
    04:00 +4°C° 0.2 mm 3 mps 708 mmHg 84%
    05:00 +4°C° 0.2 mm 4 mps 708 mmHg 83%
    06:00 +3°C° 0.2 mm 4 mps 708 mmHg 83%
    07:00 +4°C° 0.3 mm 4 mps 708 mmHg 82%
    08:00 +3°C° 0.3 mm 5 mps 708 mmHg 81%
    09:00 +3°C° 0.3 mm 5 mps 708 mmHg 81%
    10:00 +4°C° 1.4 mm 4 mps 708 mmHg 83%
    11:00 +4°C° 1.4 mm 4 mps 708 mmHg 85%
    12:00 +4°C° 1.4 mm 3 mps 708 mmHg 88%
    13:00 +4°C° 1.5 mm 3 mps 709 mmHg 89%
    14:00 +4°C° 1.5 mm 3 mps 710 mmHg 90%
    15:00 +5°C° 1.5 mm 2 mps 710 mmHg 91%
    16:00 +5°C° 0.7 mm 2 mps 711 mmHg 92%
    17:00 +5°C° 0.7 mm 2 mps 712 mmHg 92%
    18:00 +5°C° 0.7 mm 2 mps 713 mmHg 93%
    19:00 +5°C° 0.3 mm 2 mps 714 mmHg 92%
    20:00 +4°C° 0.3 mm 2 mps 714 mmHg 92%
    21:00 +4°C° 0.3 mm 2 mps 715 mmHg 92%
    22:00 +4°C° 0.4 mm 2 mps 715 mmHg 91%
    23:00 +4°C° 0.4 mm 2 mps 715 mmHg 91%
    Show more